Weather Roundup
Issued by NWS

Home | Current Version | Previous Version | Graphics & Text | Print | Product List | Glossary Off
Versions: 1 2 3 4 5 6 7 8 9 10 11 12 13 14 15 16 17 18 19 20 21 22 23 24 25 26 27 28 29 30 31 32 33 34 35 36 37 38 39 40 41 42 43 44 45 46 47 48 49 50

000
NZUS93 KARX 280310
HRRWXR

CURRENT HOURLY OBSERVATIONS ACROSS
MUCH OF THE UPPER MISSISSIPPI VALLEY
NATIONAL WEATHER SERVICE LA CROSSE WI
1000 PM CDT MON JUL 27 2015


...SOUTHEAST MINNESOTA...


CITY           SKY/WX    TMP DP  RH WIND       PRES   REMARKS
ROCHESTER      CLEAR     73  70  90 SE7       29.97R
ROCHESTER/MAYO FAIR      76  71  87 SE8       29.96R
WINONA         CLEAR     73  70  88 CALM      29.95S
AUSTIN         CLEAR     73  72  94 SE6       29.95R
ALBERT LEA     CLEAR     75  73  94 SE8       29.93R
DODGE CENTER   PTCLDY    73  70  88 SE6       29.95S
PRESTON        CLEAR     73  68  84 SE3       29.98R
OWATONNA       CLEAR     75  70  83 SE8       29.93R
FARIBAULT      NOT AVBL
$$

...ELSEWHERE IN MINNESOTA...


CITY           SKY/WX    TMP DP  RH WIND       PRES   REMARKS
MINNEAPOLIS    PTCLDY    80  71  74 SE10      29.91R
INTNL FALLS    CLEAR     73  66  78 SE5       29.89R
DULUTH         PTCLDY    73  63  70 SE6       29.96R
RED WING       CLEAR     81  70  69 SE7       29.92R
REDWOOD FALLS  CLEAR     76  69  79 SE12      29.85R
MANKATO        CLEAR     75  70  83 SE12      29.90R
WORTHINGTON    CLEAR     75  66  73 SE12G18   29.87R
FAIRMONT       CLEAR     73  63  68 SE10      29.89S
$$

...SOUTHWEST WISCONSIN...


CITY           SKY/WX    TMP DP  RH WIND       PRES   REMARKS
LA CROSSE      CLEAR     77  70  79 SE5       29.95R
PRAIRIE DU CHI MOCLDY    76  69  78 E5        29.96R
BOSCOBEL       MOCLDY    73  70  90 CALM      29.98R
LONE ROCK      PTCLDY    74  67  78 E7        29.99R
PLATTEVILLE    MOCLDY    76  72  86 SE3       30.00R
FORT MC COY    PTCLDY    71  66  84 CALM      29.98R
CAMP DOUGLAS   PTCLDY    70  70 100 E6        29.99R
VIROQUA        FAIR      73  69  88 SE5       30.00R
WIS DELLS      CLEAR     74  63  69 SE3       30.00S
$$

...ELSEWHERE IN WISCONSIN...


CITY           SKY/WX    TMP DP  RH WIND       PRES   REMARKS
MILWAUKEE      MOCLDY    71  65  81 E7        30.02R
MADISON        PTCLDY    76  64  66 SE6       30.00R
GREEN BAY      MOCLDY    71  62  73 CALM      30.01R
EAU CLAIRE     CLEAR     78  68  71 SE5       29.95R
BLACK RVR FLS  FAIR      69  69  99 CALM      29.97R
MEDFORD        CLEAR     70  64  79 SE3       30.02S
WAUSAU         PTCLDY    73  65  75 E6        30.01R
WIS RAPIDS     PTCLDY    74  62  66 SE6       30.02R
MARSHFIELD     CLEAR     74  62  66 SE3       30.01R
RICE LAKE      CLEAR     74  66  75 E3        29.98S
$$

...NORTHEAST IOWA...


CITY           SKY/WX    TMP DP  RH WIND       PRES   REMARKS
DECORAH        PTCLDY    73  72  94 SE5       29.96S
MASON CITY     CLEAR     71  70  96 SE8       29.96R
CHARLES CITY   CLEAR     73  73 100 SE5       29.96R
OELWEIN        PTCLDY    75  72  88 SE6       29.97R
$$

...ELSEWHERE IN IOWA...


CITY           SKY/WX    TMP DP  RH WIND       PRES   REMARKS
DES MOINES     PTCLDY    74  68  81 S8        29.91R
IOWA CITY      MOCLDY    76  73  91 CALM      29.96R
FORT DODGE     CLEAR     70  66  88 SE6       29.92R
$$

...NORTHERN ILLINOIS...


CITY           SKY/WX    TMP DP  RH WIND       PRES   REMARKS
CHICAGO-OHARE  MOCLDY    76  65  68 E7        30.01R
CHICAGO-MIDWAY MOCLDY    79  65  62 E8        30.01R
MOLINE         CLOUDY    77  73  87 E5        29.96R
ROCKFORD       MOCLDY    75  64  68 SE8       30.02R
PEORIA         CLOUDY    81  72  74 E6        29.97F
$$

NOTE: "FAIR" INDICATES FEW OR NO CLOUDS BELOW 12,000 FEET WITH NO
SIGNIFICANT WEATHER AND/OR OBSTRUCTIONS TO VISIBILITY. WIND
SPEEDS ARE IN MILES-PER-HOUR.



USA.gov is the U.S. government's official web portal to all federal, state and local government web resources and services.